Time,TemperatureF,DewpointF,PressureIn,WindDirection,WindDirectionDegrees,WindSpeedMPH,WindSpeedGustMPH,Humidity,HourlyPrecipIn,Conditions,Clouds,dailyrainin,SoftwareType,DateUTC
2013-02-27 00:02:00,48.0,-99.9,29.65,East,87,13.0,24.0,-999,-99.99,,,-99.99,,2013-02-27 05:02:00,
2013-02-27 00:12:00,48.0,-99.9,29.64,East,91,11.0,17.0,-999,-99.99,,,-99.99,,2013-02-27 05:12:00,
2013-02-27 00:22:00,48.0,-99.9,29.63,East,88,15.0,23.0,-999,-99.99,,,-99.99,,2013-02-27 05:22:00,
2013-02-27 00:32:00,48.0,-99.9,29.63,East,88,13.0,19.0,-999,-99.99,,,-99.99,,2013-02-27 05:32:00,
2013-02-27 00:42:00,49.0,-99.9,29.61,East,85,16.0,23.0,-999,-99.99,,,-99.99,,2013-02-27 05:42:00,
2013-02-27 00:52:00,49.0,-99.9,29.61,East,87,11.0,17.0,-999,-99.99,,,-99.99,,2013-02-27 05:52:00,
2013-02-27 01:02:00,49.0,-99.9,29.61,East,92,14.0,22.0,-999,-99.99,,,-99.99,,2013-02-27 06:02:00,
2013-02-27 01:11:00,50.0,-99.9,29.60,ESE,111,14.0,18.0,-999,-99.99,,,-99.99,,2013-02-27 06:11:00,
2013-02-27 01:22:00,50.0,-99.9,29.58,ESE,111,17.0,24.0,-999,-99.99,,,-99.99,,2013-02-27 06:22:00,
2013-02-27 01:33:00,51.0,-99.9,29.58,ESE,109,17.0,26.0,-999,-99.99,,,-99.99,,2013-02-27 06:33:00,
2013-02-27 01:42:00,50.0,-99.9,29.57,ESE,113,16.0,22.0,-999,-99.99,,,-99.99,,2013-02-27 06:42:00,
2013-02-27 01:52:00,50.0,-99.9,29.56,ESE,113,14.0,21.0,-999,-99.99,,,-99.99,,2013-02-27 06:52:00,
2013-02-27 02:01:00,50.0,-99.9,29.56,ESE,111,14.0,20.0,-999,-99.99,,,-99.99,,2013-02-27 07:01:00,
2013-02-27 02:12:00,50.0,-99.9,29.55,ESE,115,17.0,22.0,-999,-99.99,,,-99.99,,2013-02-27 07:12:00,
2013-02-27 02:22:00,50.0,-99.9,29.55,ESE,121,15.0,23.0,-999,-99.99,,,-99.99,,2013-02-27 07:22:00,
2013-02-27 02:32:00,50.0,-99.9,29.54,SE,124,14.0,20.0,-999,-99.99,,,-99.99,,2013-02-27 07:32:00,
2013-02-27 02:42:00,50.0,-99.9,29.54,SE,135,14.0,21.0,-999,-99.99,,,-99.99,,2013-02-27 07:42:00,
2013-02-27 02:52:00,50.0,-99.9,29.53,SE,129,13.0,17.0,-999,-99.99,,,-99.99,,2013-02-27 07:52:00,
2013-02-27 03:01:00,50.0,-99.9,29.52,SE,130,14.0,19.0,-999,-99.99,,,-99.99,,2013-02-27 08:01:00,
2013-02-27 03:12:00,50.0,-99.9,29.52,SE,128,13.0,17.0,-999,-99.99,,,-99.99,,2013-02-27 08:12:00,
2013-02-27 03:22:00,50.0,-99.9,29.52,SE,126,12.0,16.0,-999,-99.99,,,-99.99,,2013-02-27 08:22:00,
2013-02-27 03:32:00,50.0,-99.9,29.51,SE,124,12.0,19.0,-999,-99.99,,,-99.99,,2013-02-27 08:32:00,
2013-02-27 03:42:00,50.0,-99.9,29.51,SE,134,13.0,17.0,-999,-99.99,,,-99.99,,2013-02-27 08:42:00,
2013-02-27 03:53:00,49.0,-99.9,29.50,SE,136,11.0,16.0,-999,-99.99,,,-99.99,,2013-02-27 08:53:00,
2013-02-27 04:02:00,49.0,-99.9,29.49,SE,128,11.0,13.0,-999,-99.99,,,-99.99,,2013-02-27 09:02:00,
2013-02-27 04:12:00,50.0,-99.9,29.49,SE,138,9.0,16.0,-999,-99.99,,,-99.99,,2013-02-27 09:12:00,
2013-02-27 04:22:00,50.0,-99.9,29.49,SE,142,10.0,14.0,-999,-99.99,,,-99.99,,2013-02-27 09:22:00,
2013-02-27 04:32:00,50.0,-99.9,29.48,SE,133,9.0,12.0,-999,-99.99,,,-99.99,,2013-02-27 09:32:00,
2013-02-27 04:42:00,49.0,-99.9,29.48,SE,146,11.0,15.0,-999,-99.99,,,-99.99,,2013-02-27 09:42:00,
2013-02-27 04:52:00,49.0,-99.9,29.48,SSE,164,7.0,12.0,-999,-99.99,,,-99.99,,2013-02-27 09:52:00,
2013-02-27 05:01:00,49.0,-99.9,29.48,South,176,10.0,12.0,-999,-99.99,,,-99.99,,2013-02-27 10:01:00,
2013-02-27 05:12:00,47.0,-99.9,29.49,South,185,6.0,9.0,-999,-99.99,,,-99.99,,2013-02-27 10:12:00,
2013-02-27 05:22:00,47.0,-99.9,29.48,South,186,5.0,8.0,-999,-99.99,,,-99.99,,2013-02-27 10:22:00,
2013-02-27 05:32:00,46.0,-99.9,29.49,SSW,210,5.0,7.0,-999,-99.99,,,-99.99,,2013-02-27 10:32:00,
2013-02-27 05:42:00,46.0,-99.9,29.48,South,171,5.0,8.0,-999,-99.99,,,-99.99,,2013-02-27 10:42:00,
2013-02-27 05:53:00,46.0,-99.9,29.49,SSW,199,3.0,5.0,-999,-99.99,,,-99.99,,2013-02-27 10:53:00,
2013-02-27 06:03:00,46.0,-99.9,29.48,SSW,196,4.0,5.0,-999,-99.99,,,-99.99,,2013-02-27 11:03:00,
2013-02-27 06:12:00,44.0,-99.9,29.48,WSW,239,3.0,4.0,-999,-99.99,,,-99.99,,2013-02-27 11:12:00,
2013-02-27 06:22:00,43.0,-99.9,29.48,SSW,205,3.0,4.0,-999,-99.99,,,-99.99,,2013-02-27 11:22:00,
2013-02-27 06:32:00,45.0,-99.9,29.47,South,179,2.0,4.0,-999,-99.99,,,-99.99,,2013-02-27 11:32:00,
2013-02-27 06:42:00,45.0,-99.9,29.47,SSW,196,4.0,5.0,-999,-99.99,,,-99.99,,2013-02-27 11:42:00,
2013-02-27 06:52:00,44.0,-99.9,29.49,WSW,244,4.0,5.0,-999,-99.99,,,-99.99,,2013-02-27 11:52:00,
2013-02-27 07:02:00,44.0,-99.9,29.49,SW,230,9.0,11.0,-999,-99.99,,,-99.99,,2013-02-27 12:02:00,
2013-02-27 07:13:00,44.0,-99.9,29.49,SW,230,9.0,11.0,-999,-99.99,,,-99.99,,2013-02-27 12:13:00,
2013-02-27 07:22:00,44.0,-99.9,29.49,SW,217,7.0,10.0,-999,-99.99,,,-99.99,,2013-02-27 12:22:00,
2013-02-27 07:33:00,46.0,-99.9,29.49,SW,220,9.0,13.0,-999,-99.99,,,-99.99,,2013-02-27 12:33:00,
2013-02-27 07:42:00,45.0,-99.9,29.49,SW,226,10.0,13.0,-999,-99.99,,,-99.99,,2013-02-27 12:42:00,
2013-02-27 07:53:00,45.0,-99.9,29.51,SW,228,11.0,14.0,-999,-99.99,,,-99.99,,2013-02-27 12:53:00,
2013-02-27 08:03:00,45.0,-99.9,29.51,SW,230,8.0,13.0,-999,-99.99,,,-99.99,,2013-02-27 13:03:00,
2013-02-27 08:12:00,45.0,-99.9,29.51,WSW,237,13.0,15.0,-999,-99.99,,,-99.99,,2013-02-27 13:12:00,
2013-02-27 08:22:00,45.0,-99.9,29.52,WSW,240,13.0,16.0,-999,-99.99,,,-99.99,,2013-02-27 13:22:00,
2013-02-27 08:32:00,45.0,-99.9,29.52,SW,229,10.0,13.0,-999,-99.99,,,-99.99,,2013-02-27 13:32:00,
2013-02-27 08:42:00,45.0,-99.9,29.52,SW,232,9.0,12.0,-999,-99.99,,,-99.99,,2013-02-27 13:42:00,
2013-02-27 08:53:00,44.0,-99.9,29.52,SW,221,10.0,14.0,-999,-99.99,,,-99.99,,2013-02-27 13:53:00,
2013-02-27 09:02:00,44.0,-99.9,29.53,WSW,241,12.0,15.0,-999,-99.99,,,-99.99,,2013-02-27 14:02:00,
2013-02-27 09:12:00,44.0,-99.9,29.54,WSW,242,12.0,15.0,-999,-99.99,,,-99.99,,2013-02-27 14:12:00,
2013-02-27 09:22:00,44.0,-99.9,29.54,WSW,244,15.0,18.0,-999,-99.99,,,-99.99,,2013-02-27 14:22:00,
2013-02-27 09:32:00,45.0,-99.9,29.54,SW,235,13.0,17.0,-999,-99.99,,,-99.99,,2013-02-27 14:32:00,
2013-02-27 09:42:00,45.0,-99.9,29.54,SW,236,14.0,18.0,-999,-99.99,,,-99.99,,2013-02-27 14:42:00,
2013-02-27 09:53:00,43.0,-99.9,29.54,WSW,251,15.0,17.0,-999,-99.99,,,-99.99,,2013-02-27 14:53:00,
2013-02-27 10:02:00,44.0,-99.9,29.54,WSW,254,15.0,18.0,-999,-99.99,,,-99.99,,2013-02-27 15:02:00,
2013-02-27 10:13:00,44.0,-99.9,29.55,West,261,20.0,23.0,-999,-99.99,,,-99.99,,2013-02-27 15:13:00,
2013-02-27 10:23:00,43.0,-99.9,29.55,West,266,17.0,18.0,-999,-99.99,,,-99.99,,2013-02-27 15:23:00,
2013-02-27 10:32:00,43.0,-99.9,29.56,West,269,17.0,19.0,-999,-99.99,,,-99.99,,2013-02-27 15:32:00,
2013-02-27 10:42:00,43.0,-99.9,29.56,West,267,18.0,21.0,-999,-99.99,,,-99.99,,2013-02-27 15:42:00,
2013-02-27 10:52:00,43.0,-99.9,29.57,West,267,16.0,19.0,-999,-99.99,,,-99.99,,2013-02-27 15:52:00,
2013-02-27 11:02:00,42.0,-99.9,29.57,West,268,17.0,19.0,-999,-99.99,,,-99.99,,2013-02-27 16:02:00,
2013-02-27 11:12:00,44.0,-99.9,29.58,West,270,17.0,19.0,-999,-99.99,,,-99.99,,2013-02-27 16:12:00,
2013-02-27 11:22:00,44.0,-99.9,29.57,West,273,17.0,21.0,-999,-99.99,,,-99.99,,2013-02-27 16:22:00,
2013-02-27 11:32:00,44.0,-99.9,29.58,West,275,15.0,17.0,-999,-99.99,,,-99.99,,2013-02-27 16:32:00,
2013-02-27 11:42:00,43.0,-99.9,29.58,West,275,17.0,20.0,-999,-99.99,,,-99.99,,2013-02-27 16:42:00,
2013-02-27 11:52:00,43.0,-99.9,29.58,West,273,15.0,18.0,-999,-99.99,,,-99.99,,2013-02-27 16:52:00,
2013-02-27 12:02:00,43.0,-99.9,29.58,West,272,14.0,15.0,-999,-99.99,,,-99.99,,2013-02-27 17:02:00,
2013-02-27 12:11:00,43.0,-99.9,29.58,West,272,14.0,15.0,-999,-99.99,,,-99.99,,2013-02-27 17:11:00,
2013-02-27 12:22:00,44.0,-99.9,29.58,West,281,15.0,17.0,-999,-99.99,,,-99.99,,2013-02-27 17:22:00,
2013-02-27 12:32:00,44.0,-99.9,29.58,WNW,284,13.0,15.0,-999,-99.99,,,-99.99,,2013-02-27 17:32:00,
2013-02-27 12:42:00,44.0,-99.9,29.58,WNW,282,13.0,15.0,-999,-99.99,,,-99.99,,2013-02-27 17:42:00,
2013-02-27 12:52:00,44.0,-99.9,29.58,WNW,295,9.0,11.0,-999,-99.99,,,-99.99,,2013-02-27 17:52:00,
2013-02-27 13:02:00,46.0,-99.9,29.58,WNW,302,9.0,11.0,-999,-99.99,,,-99.99,,2013-02-27 18:02:00,
2013-02-27 13:11:00,46.0,-99.9,29.58,WNW,303,11.0,14.0,-999,-99.99,,,-99.99,,2013-02-27 18:11:00,
2013-02-27 13:22:00,46.0,-99.9,29.59,NW,309,10.0,13.0,-999,-99.99,,,-99.99,,2013-02-27 18:22:00,
2013-02-27 13:32:00,47.0,-99.9,29.59,NW,306,11.0,14.0,-999,-99.99,,,-99.99,,2013-02-27 18:32:00,
2013-02-27 13:42:00,46.0,-99.9,29.59,WNW,295,9.0,11.0,-999,-99.99,,,-99.99,,2013-02-27 18:42:00,
2013-02-27 13:52:00,46.0,-99.9,29.59,WNW,293,10.0,12.0,-999,-99.99,,,-99.99,,2013-02-27 18:52:00,
2013-02-27 14:02:00,46.0,-99.9,29.59,NW,304,10.0,13.0,-999,-99.99,,,-99.99,,2013-02-27 19:02:00,
2013-02-27 14:12:00,47.0,-99.9,29.59,WNW,303,11.0,14.0,-999,-99.99,,,-99.99,,2013-02-27 19:12:00,
2013-02-27 14:22:00,47.0,-99.9,29.59,WNW,299,13.0,16.0,-999,-99.99,,,-99.99,,2013-02-27 19:22:00,
2013-02-27 14:32:00,47.0,-99.9,29.59,WNW,300,12.0,16.0,-999,-99.99,,,-99.99,,2013-02-27 19:32:00,
2013-02-27 14:42:00,48.0,-99.9,29.60,NW,310,11.0,15.0,-999,-99.99,,,-99.99,,2013-02-27 19:42:00,
2013-02-27 14:52:00,48.0,-99.9,29.60,NW,311,9.0,13.0,-999,-99.99,,,-99.99,,2013-02-27 19:52:00,
2013-02-27 15:02:00,47.0,-99.9,29.60,NW,315,9.0,12.0,-999,-99.99,,,-99.99,,2013-02-27 20:02:00,
2013-02-27 15:12:00,46.0,-99.9,29.60,WNW,300,9.0,12.0,-999,-99.99,,,-99.99,,2013-02-27 20:12:00,
2013-02-27 15:22:00,47.0,-99.9,29.60,NW,306,9.0,11.0,-999,-99.99,,,-99.99,,2013-02-27 20:22:00,
2013-02-27 15:32:00,46.0,-99.9,29.61,WNW,286,8.0,10.0,-999,-99.99,,,-99.99,,2013-02-27 20:32:00,
2013-02-27 15:42:00,46.0,-99.9,29.61,WNW,302,7.0,9.0,-999,-99.99,,,-99.99,,2013-02-27 20:42:00,
2013-02-27 15:53:00,47.0,-99.9,29.61,WNW,296,7.0,11.0,-999,-99.99,,,-99.99,,2013-02-27 20:53:00,
2013-02-27 16:02:00,47.0,-99.9,29.62,WNW,300,7.0,10.0,-999,-99.99,,,-99.99,,2013-02-27 21:02:00,
2013-02-27 16:12:00,45.0,-99.9,29.62,West,281,7.0,8.0,-999,-99.99,,,-99.99,,2013-02-27 21:12:00,
2013-02-27 16:22:00,46.0,-99.9,29.62,WNW,298,6.0,8.0,-999,-99.99,,,-99.99,,2013-02-27 21:22:00,
2013-02-27 16:32:00,46.0,-99.9,29.62,WNW,296,7.0,9.0,-999,-99.99,,,-99.99,,2013-02-27 21:32:00,
2013-02-27 16:42:00,46.0,-99.9,29.62,WNW,293,8.0,10.0,-999,-99.99,,,-99.99,,2013-02-27 21:42:00,
2013-02-27 16:52:00,46.0,-99.9,29.62,WNW,296,7.0,10.0,-999,-99.99,,,-99.99,,2013-02-27 21:52:00,
2013-02-27 17:02:00,46.0,-99.9,29.62,WNW,288,8.0,10.0,-999,-99.99,,,-99.99,,2013-02-27 22:02:00,
2013-02-27 17:12:00,46.0,-99.9,29.62,West,268,6.0,7.0,-999,-99.99,,,-99.99,,2013-02-27 22:12:00,
2013-02-27 17:22:00,45.0,-99.9,29.62,WNW,282,6.0,7.0,-999,-99.99,,,-99.99,,2013-02-27 22:22:00,
2013-02-27 17:32:00,45.0,-99.9,29.62,West,271,4.0,4.0,-999,-99.99,,,-99.99,,2013-02-27 22:32:00,
2013-02-27 17:42:00,45.0,-99.9,29.63,West,276,4.0,5.0,-999,-99.99,,,-99.99,,2013-02-27 22:42:00,
2013-02-27 17:52:00,45.0,-99.9,29.63,West,266,3.0,4.0,-999,-99.99,,,-99.99,,2013-02-27 22:52:00,
2013-02-27 18:02:00,44.0,-99.9,29.63,WSW,255,3.0,4.0,-999,-99.99,,,-99.99,,2013-02-27 23:02:00,
2013-02-27 18:12:00,45.0,-99.9,29.64,WSW,254,4.0,5.0,-999,-99.99,,,-99.99,,2013-02-27 23:12:00,
2013-02-27 18:22:00,44.0,-99.9,29.65,WSW,255,4.0,4.0,-999,-99.99,,,-99.99,,2013-02-27 23:22:00,
2013-02-27 18:32:00,44.0,-99.9,29.65,WSW,238,4.0,5.0,-999,-99.99,,,-99.99,,2013-02-27 23:32:00,
2013-02-27 18:42:00,47.0,-99.9,29.65,SW,227,7.0,9.0,-999,-99.99,,,-99.99,,2013-02-27 23:42:00,
2013-02-27 18:53:00,47.0,-99.9,29.65,SW,235,8.0,10.0,-999,-99.99,,,-99.99,,2013-02-27 23:53:00,
2013-02-27 19:02:00,48.0,-99.9,29.66,WSW,237,7.0,9.0,-999,-99.99,,,-99.99,,2013-02-28 00:02:00,
2013-02-27 19:13:00,48.0,-99.9,29.66,SW,232,6.0,7.0,-999,-99.99,,,-99.99,,2013-02-28 00:13:00,
2013-02-27 19:22:00,47.0,-99.9,29.66,SW,218,6.0,8.0,-999,-99.99,,,-99.99,,2013-02-28 00:22:00,
2013-02-27 19:32:00,48.0,-99.9,29.66,SW,227,6.0,8.0,-999,-99.99,,,-99.99,,2013-02-28 00:32:00,
2013-02-27 19:42:00,49.0,-99.9,29.66,SSW,207,6.0,8.0,-999,-99.99,,,-99.99,,2013-02-28 00:42:00,
2013-02-27 19:52:00,49.0,-99.9,29.66,SW,224,6.0,8.0,-999,-99.99,,,-99.99,,2013-02-28 00:52:00,
2013-02-27 20:01:00,48.0,-99.9,29.66,SSW,210,6.0,7.0,-999,-99.99,,,-99.99,,2013-02-28 01:01:00,
2013-02-27 20:11:00,48.0,-99.9,29.66,South,177,4.0,5.0,-999,-99.99,,,-99.99,,2013-02-28 01:11:00,
2013-02-27 20:22:00,48.0,-99.9,29.66,South,186,4.0,5.0,-999,-99.99,,,-99.99,,2013-02-28 01:22:00,
2013-02-27 20:32:00,47.0,-99.9,29.66,South,179,5.0,8.0,-999,-99.99,,,-99.99,,2013-02-28 01:32:00,
2013-02-27 20:42:00,47.0,-99.9,29.67,SSE,165,6.0,8.0,-999,-99.99,,,-99.99,,2013-02-28 01:42:00,
2013-02-27 20:52:00,46.0,-99.9,29.67,South,179,6.0,8.0,-999,-99.99,,,-99.99,,2013-02-28 01:52:00,
2013-02-27 21:01:00,46.0,-99.9,29.67,South,179,5.0,6.0,-999,-99.99,,,-99.99,,2013-02-28 02:01:00,
2013-02-27 21:11:00,46.0,-99.9,29.67,SSE,148,3.0,3.0,-999,-99.99,,,-99.99,,2013-02-28 02:11:00,
2013-02-27 21:22:00,46.0,-99.9,29.67,SSE,147,2.0,3.0,-999,-99.99,,,-99.99,,2013-02-28 02:22:00,
2013-02-27 21:32:00,46.0,-99.9,29.67,North,-999,-999.0,-999.0,-999,-99.99,,,-99.99,,2013-02-28 02:32:00,
2013-02-27 21:42:00,46.0,-99.9,29.67,North,-999,-999.0,-999.0,-999,-99.99,,,-99.99,,2013-02-28 02:42:00,
2013-02-27 21:52:00,46.0,-99.9,29.67,North,-999,-999.0,-999.0,-999,-99.99,,,-99.99,,2013-02-28 02:52:00,
2013-02-27 22:02:00,45.0,-99.9,29.67,South,187,3.0,4.0,-999,-99.99,,,-99.99,,2013-02-28 03:02:00,
2013-02-27 22:11:00,45.0,-99.9,29.68,NNW,330,2.0,4.0,-999,-99.99,,,-99.99,,2013-02-28 03:11:00,
2013-02-27 22:22:00,44.0,-99.9,29.68,NW,319,1.0,1.0,-999,-99.99,,,-99.99,,2013-02-28 03:22:00,
2013-02-27 22:32:00,44.0,-99.9,29.68,WNW,290,2.0,2.0,-999,-99.99,,,-99.99,,2013-02-28 03:32:00,
2013-02-27 22:42:00,44.0,-99.9,29.67,NNE,15,1.0,2.0,-999,-99.99,,,-99.99,,2013-02-28 03:42:00,
2013-02-27 22:52:00,46.0,-99.9,29.66,NE,52,2.0,3.0,-999,-99.99,,,-99.99,,2013-02-28 03:52:00,
2013-02-27 23:02:00,46.0,-99.9,29.66,NE,49,2.0,4.0,-999,-99.99,,,-99.99,,2013-02-28 04:02:00,
2013-02-27 23:11:00,45.0,-99.9,29.66,East,82,1.0,1.0,-999,-99.99,,,-99.99,,2013-02-28 04:11:00,
2013-02-27 23:22:00,44.0,-99.9,29.66,East,84,1.0,2.0,-999,-99.99,,,-99.99,,2013-02-28 04:22:00,
2013-02-27 23:32:00,46.0,-99.9,29.66,NE,54,1.0,2.0,-999,-99.99,,,-99.99,,2013-02-28 04:32:00,
2013-02-27 23:42:00,45.0,-99.9,29.65,ENE,75,1.0,1.0,-999,-99.99,,,-99.99,,2013-02-28 04:42:00,
2013-02-27 23:52:00,45.0,-99.9,29.65,East,91,2.0,2.0,-999,-99.99,,,-99.99,,2013-02-28 04:52:00,